DLH3KV EDDC-EDDF

Flight info

Callsign DLH3KV
Flight time N/A
Altitude 30000
Route ABKIS4E ABKIS Z715 PEROX/N0459F380 Z715 NURGO T170 GAPLA/N0407F240 T178 KERAX KERAX5D
Aircraft A20N/M-SDE2E3FGHIRWXY/LB1

Departure

Time 2026-05-07 19:13
Airport Dresden Airport (EDDC)

Arrival

Time N/A
Airport Frankfurt Main Airport (EDDF)
Time Latitude Longitude Altitude Speed Heading
2026-05-07 18:51 51.12592 13.76601 756 ft 0 kts 221°
2026-05-07 19:02 51.12597 13.76607 756 ft 2 kts 221°
2026-05-07 19:03 51.12608 13.76623 756 ft 2 kts 221°
2026-05-07 19:03 51.12619 13.76638 756 ft 2 kts 221°
2026-05-07 19:03 51.12630 13.76654 756 ft 2 kts 221°
2026-05-07 19:03 51.12641 13.76669 756 ft 2 kts 221°
2026-05-07 19:04 51.12652 13.76684 755 ft 1 kts 244°
2026-05-07 19:04 51.12653 13.76708 755 ft 2 kts 294°
2026-05-07 19:04 51.12649 13.76717 755 ft 1 kts 319°
2026-05-07 19:04 51.12646 13.76723 755 ft 0 kts 312°
2026-05-07 19:06 51.12655 13.76706 755 ft 4 kts 312°
2026-05-07 19:07 51.12694 13.76638 754 ft 12 kts 312°
2026-05-07 19:07 51.12762 13.76510 751 ft 17 kts 311°
2026-05-07 19:07 51.12759 13.76347 752 ft 16 kts 221°
2026-05-07 19:07 51.12677 13.76235 753 ft 15 kts 221°
2026-05-07 19:08 51.12596 13.76122 755 ft 14 kts 221°
2026-05-07 19:08 51.12519 13.76017 755 ft 15 kts 220°
2026-05-07 19:08 51.12440 13.75910 756 ft 14 kts 221°
2026-05-07 19:08 51.12372 13.75784 754 ft 16 kts 263°
2026-05-07 19:09 51.12386 13.75694 752 ft 0 kts 292°
2026-05-07 19:09 51.12385 13.75694 752 ft 0 kts 292°
2026-05-07 19:11 51.12391 13.75674 752 ft 10 kts 292°
2026-05-07 19:11 51.12455 13.75525 749 ft 20 kts 330°
2026-05-07 19:12 51.12575 13.75615 751 ft 29 kts 40°
2026-05-07 19:12 51.12930 13.76103 745 ft 103 kts 40°
2026-05-07 19:12 51.13636 13.77077 743 ft 160 kts 40°
2026-05-07 19:12 51.14482 13.78285 1265 ft 168 kts 41°
2026-05-07 19:13 51.15332 13.79516 2042 ft 167 kts 40°
2026-05-07 19:13 51.16182 13.80711 2754 ft 170 kts 40°
2026-05-07 19:13 51.17105 13.81985 3275 ft 184 kts 39°
2026-05-07 19:13 51.18115 13.83367 3789 ft 197 kts 40°
2026-05-07 19:14 51.19217 13.84870 4125 ft 221 kts 40°
2026-05-07 19:14 51.20213 13.86812 4553 ft 242 kts 66°
2026-05-07 19:14 51.20483 13.89543 5050 ft 262 kts 97°
2026-05-07 19:14 51.19828 13.92298 5787 ft 271 kts 123°
2026-05-07 19:15 51.18481 13.94308 6601 ft 275 kts 153°
2026-05-07 19:15 51.16640 13.95036 7455 ft 277 kts 182°
2026-05-07 19:15 51.14797 13.94254 8293 ft 278 kts 211°
2026-05-07 19:15 51.13376 13.92230 9113 ft 279 kts 229°
2026-05-07 19:16 51.12103 13.89931 9927 ft 282 kts 228°
2026-05-07 19:16 51.10782 13.87586 10634 ft 289 kts 228°
2026-05-07 19:16 51.09402 13.85161 11040 ft 306 kts 228°
2026-05-07 19:16 51.07931 13.82592 11401 ft 324 kts 228°
2026-05-07 19:17 51.06361 13.79861 11738 ft 342 kts 228°
2026-05-07 19:17 51.04733 13.77036 12040 ft 359 kts 228°
2026-05-07 19:17 51.02999 13.74035 12352 ft 375 kts 228°
2026-05-07 19:17 51.01214 13.70948 12880 ft 383 kts 228°
2026-05-07 19:18 50.99423 13.67858 13548 ft 387 kts 228°
2026-05-07 19:18 50.97600 13.64715 14223 ft 390 kts 228°
2026-05-07 19:18 50.95773 13.61568 14841 ft 394 kts 228°
2026-05-07 19:18 50.93906 13.58355 15460 ft 397 kts 228°
2026-05-07 19:19 50.92042 13.55152 16043 ft 401 kts 228°
2026-05-07 19:19 50.90130 13.51872 16609 ft 406 kts 229°
2026-05-07 19:19 50.88224 13.48606 17156 ft 410 kts 229°
2026-05-07 19:19 50.86276 13.45272 17693 ft 414 kts 229°
2026-05-07 19:20 50.84327 13.41939 18205 ft 417 kts 229°
2026-05-07 19:20 50.82347 13.38561 18720 ft 421 kts 229°
2026-05-07 19:20 50.80366 13.35186 19219 ft 424 kts 229°
2026-05-07 19:20 50.78361 13.31773 19712 ft 428 kts 228°
2026-05-07 19:21 50.76330 13.28320 20189 ft 431 kts 228°
2026-05-07 19:21 50.74276 13.24834 20655 ft 435 kts 229°
2026-05-07 19:21 50.72208 13.21326 21102 ft 439 kts 229°
2026-05-07 19:21 50.70145 13.17834 21555 ft 442 kts 229°
2026-05-07 19:22 50.68034 13.14265 21999 ft 446 kts 229°
2026-05-07 19:22 50.65910 13.10672 22427 ft 449 kts 230°
2026-05-07 19:22 50.63919 13.06914 22874 ft 450 kts 235°
2026-05-07 19:22 50.62151 13.02901 23496 ft 447 kts 240°
2026-05-07 19:23 50.60639 12.98733 24156 ft 442 kts 245°
2026-05-07 19:23 50.59230 12.94442 24782 ft 441 kts 246°
2026-05-07 19:23 50.57829 12.90130 25374 ft 440 kts 246°
2026-05-07 19:23 50.56447 12.85893 25987 ft 438 kts 245°
2026-05-07 19:24 50.55067 12.81678 26594 ft 437 kts 245°
2026-05-07 19:24 50.53667 12.77422 27186 ft 435 kts 245°
2026-05-07 19:24 50.52290 12.73254 27755 ft 434 kts 245°
2026-05-07 19:24 50.50906 12.69068 28305 ft 432 kts 245°
2026-05-07 19:25 50.49525 12.64899 28774 ft 432 kts 245°
2026-05-07 19:25 50.48136 12.60717 29152 ft 434 kts 245°
2026-05-07 19:25 50.46736 12.56509 29509 ft 436 kts 245°
2026-05-07 19:25 50.45335 12.52302 29856 ft 437 kts 245°
2026-05-07 19:26 50.43933 12.48104 30006 ft 439 kts 245°
2026-05-07 19:26 50.42524 12.43887 30014 ft 438 kts 244°
2026-05-07 19:26 50.39673 12.35382 30016 ft 438 kts 244°
2026-05-07 19:27 50.36834 12.26946 30023 ft 438 kts 244°
2026-05-07 19:27 50.33858 12.18663 30023 ft 439 kts 239°
2026-05-07 19:28 50.30451 12.10767 30032 ft 439 kts 238°
2026-05-07 19:28 50.29019 12.06669 30021 ft 436 kts 250°
2026-05-07 19:28 50.28189 12.02102 30034 ft 435 kts 262°
2026-05-07 19:29 50.28016 11.97404 30037 ft 434 kts 274°
2026-05-07 19:29 50.28478 11.92831 30038 ft 433 kts 286°
2026-05-07 19:29 50.30447 11.83951 30041 ft 433 kts 291°
2026-05-07 19:30 50.32493 11.75129 30038 ft 434 kts 290°
2026-05-07 19:30 50.34529 11.66230 30034 ft 434 kts 290°
2026-05-07 19:31 50.36535 11.57380 29814 ft 435 kts 290°
2026-05-07 19:31 50.37547 11.52889 29531 ft 432 kts 290°
2026-05-07 19:31 50.38528 11.48533 29256 ft 430 kts 290°
2026-05-07 19:32 50.39511 11.44150 28979 ft 427 kts 290°
2026-05-07 19:32 50.40489 11.39784 28702 ft 425 kts 290°
2026-05-07 19:32 50.41470 11.35399 28422 ft 426 kts 290°
2026-05-07 19:32 50.42445 11.31029 28145 ft 427 kts 289°
2026-05-07 19:33 50.43418 11.26661 27867 ft 428 kts 289°
2026-05-07 19:33 50.44394 11.22263 27590 ft 429 kts 289°
2026-05-07 19:33 50.45375 11.17830 27310 ft 430 kts 289°
2026-05-07 19:33 50.46350 11.13414 27034 ft 431 kts 289°
2026-05-07 19:34 50.47319 11.09012 26759 ft 432 kts 289°
2026-05-07 19:34 50.48304 11.04531 26478 ft 433 kts 289°
2026-05-07 19:34 50.49271 11.00120 26202 ft 434 kts 289°
2026-05-07 19:34 50.50257 10.95614 25927 ft 435 kts 289°
2026-05-07 19:35 50.51234 10.91132 25653 ft 436 kts 289°
2026-05-07 19:35 50.52210 10.86649 25378 ft 436 kts 289°
2026-05-07 19:35 50.53185 10.82162 25107 ft 437 kts 289°